Location: Gro�sch�nbrunn
(49.5760°N, 11.8868°E)
Time: 22:57:33
(UTC+00:00)

Cosmos 2279 Rocket - Visible Passes

Search period start: 23 January 2021 00:00
Search period end: 02 February 2021 00:00
Orbit: 965 x 978 km, 82.9° (Epoch: 23 January)

Date Brightness Start Highest point End Pass type
(mag) Time Alt. Az. Time Alt. Az. Time Alt. Az.
23 Jan 5.7 04:49:02 10° SSE 04:54:32 34° E 05:00:05 10° NNE visible
23 Jan 5.2 17:24:08 10° NNW 17:30:04 46° W 17:35:58 10° SSW visible
24 Jan 4.8 05:12:27 10° SSE 05:18:30 56° E 05:24:37 10° NNE visible
24 Jan 6.1 17:48:45 10° NNW 17:53:57 28° W 17:59:08 10° SW visible
25 Jan 6.7 03:54:24 10° ESE 03:58:14 17° ENE 04:02:04 10° NE visible
25 Jan 4.0 05:36:22 10° S 05:42:37 90° E 05:48:55 10° N visible
25 Jan 4.1 16:27:00 10° N 16:33:19 90° NW 16:39:34 10° S visible
25 Jan 6.8 18:13:52 10° NW 18:17:42 17° WNW 18:21:32 10° WSW visible
26 Jan 6.0 04:16:48 10° SE 04:21:58 28° E 04:27:10 10° NNE visible
26 Jan 4.1 06:00:46 10° SSW 06:06:53 57° WNW 06:13:05 10° N visible
26 Jan 4.8 16:51:20 10° NNW 16:57:26 56° W 17:03:30 10° SSW visible
27 Jan 5.1 04:39:58 10° SSE 04:45:52 46° E 04:51:49 10° NNE visible
27 Jan 5.8 17:15:51 10° NNW 17:21:23 34° W 17:26:54 10° SSW visible
28 Jan 6.9 03:22:46 10° ESE 03:25:44 14° ENE 03:28:44 10° NE visible
28 Jan 4.2 05:03:42 10° S 05:09:55 76° E 05:16:12 10° NNE visible
28 Jan 6.6 17:40:44 10° NW 17:45:12 21° W 17:49:38 10° SW visible
29 Jan 6.2 03:44:40 10° SE 03:49:25 23° E 03:54:11 10° NNE visible
29 Jan 4.0 05:27:55 10° SSW 05:34:08 68° WNW 05:40:25 10° N visible
29 Jan 7.0 18:06:33 10° NW 18:08:50 12° WNW 18:11:07 10° W visible
30 Jan 5.4 04:07:35 10° SSE 04:13:16 38° E 04:18:59 10° NNE visible
30 Jan 4.3 05:52:37 10° SW 05:58:31 42° WNW 06:04:27 10° N visible
30 Jan 5.5 16:43:00 10° NNW 16:48:48 41° W 16:54:33 10° SSW visible
31 Jan 7.0 02:51:41 10° E 02:53:16 11° ENE 02:54:53 10° ENE visible
31 Jan 4.5 04:31:07 10° S 04:37:15 63° E 04:43:27 10° NNE visible
31 Jan 6.4 17:07:42 10° NNW 17:12:40 25° W 17:17:35 10° SW visible
01 Feb 6.4 03:12:41 10° ESE 03:16:54 19° E 03:21:07 10° NE visible
01 Feb 3.9 04:55:08 10° S 05:01:24 82° W 05:07:43 10° N visible
01 Feb 6.8 17:33:00 10° NW 17:36:22 15° WNW 17:39:43 10° WSW visible
